Terminal Aerodrome Forecast
Issued by NWS

Home | Current Version | Previous Version | Text Only | Print | Product List | Glossary On
Versions: 1 2 3 4 5 6 7 8 9 10 11 12 13 14 15 16 17 18 19 20 21 22 23 24 25 26 27 28 29 30 31
000
FTUS41 KBUF 290500
TAFJHW
TAF
KJHW 290532Z 2906/3006 VRB03KT P6SM SCT250
     FM290800 VRB03KT 3SM BR SCT250
     FM290900 VRB03KT 2SM BR SCT250
     FM291300 15004KT P6SM SCT200
     FM292300 17004KT P6SM BKN110
     FM300500 17006KT P6SM BKN070
      AMD LTD TO CLD VIS AND WIND=

USA.gov is the U.S. government's official web portal to all federal, state and local government web resources and services.